Temp
17 17 18 18 18 18 18 17 18 18 17 17 17 17 17 17 17 17 17 16 16 16 16 16 16 16 16 16 16 16 16 16 16 16 17 17 16 16 16 16 16 16 16 16 16 16 17 17 17 17 17 17 16 16 16 16 16 15 15 15 15 15 15 15 15 15 15 14 14
17 17 17 17 17 17 17 17 17 17 17 17 17 16 16 16 16 16 16 16 15 15 15 15 15 15 15 15 16 16 16 16 16 16 16 16 16 16 17 16 16 16 16 16 15 15 16 16 16 16 16 16 16 16 16 15 15 15 15 15 15 15 15 15 15 14 14 14 14
17 17 17 17 17 17 17 16 16 16 16 16 16 16 16 16 16 16 15 15 15 15 15 15 14 14 15 15 15 15 15 16 16 16 16 16 17 17 17 17 16 16 16 15 15 15 15 15 15 15 15 15 15 15 15 15 15 15 15 15 15 15 15 14 14 14 14 14 14
16 16 16 16 16 16 16 16 16 16 16 16 16 16 15 15 15 15 15 14 14 14 14 14 14 14 14 14 14 15 15 16 16 16 15 16 16 16 16 15 15 15 14 14 13 13 13 14 14 14 14 14 14 14 15 14 14 14 15 15 15 14 14 14 14 14 14 14 13
16 16 16 16 16 16 15 15 15 15 15 15 15 15 15 15 15 14 14 14 14 14 14 14 13 13 13 13 14 14 15 15 15 15 15 14 15 14 14 13 13 13 13 13 13 13 13 13 13 13 13 14 14 14 14 14 14 14 14 14 14 14 14 14 14 14 13 13 13
15 15 15 15 15 15 15 15 15 15 15 15 15 14 14 14 14 14 13 13 13 13 13 13 13 13 13 13 13 13 13 14 14 14 13 13 13 13 12 12 12 12 12 13 13 13 13 13 13 14 14 14 14 14 14 14 14 14 14 14 14 14 14 14 14 13 13 13 13
15 14 14 14 14 14 14 14 14 14 14 14 14 14 13 13 13 13 13 13 12 12 13 13 13 13 12 12 12 12 12 12 12 13 13 13 12 12 12 12 12 12 12 13 13 13 13 13 13 13 13 13 13 13 13 13 13 13 13 13 13 13 13 13 13 13 13 13 12
14 14 14 14 14 14 14 14 14 14 14 13 13 13 13 13 13 12 12 12 12 12 12 12 12 12 11 11 11 11 11 11 12 12 12 12 12 12 12 12 12 12 12 13 13 13 13 13 13 13 13 13 13 13 13 13 13 13 13 13 13 13 12 12 12 12 12 12 12
14 14 14 14 14 14 14 14 13 13 13 13 13 13 12 12 12 12 12 11 11 11 11 11 11 11 10 10 10 10 11 11 11 11 11 11 12 12 12 12 12 12 12 12 12 12 12 12 12 12 12 12 12 12 12 12 13 13 12 12 12 12 12 11 12 12 12 12 11
13 13 13 13 13 13 13 13 13 13 13 12 12 12 12 12 12 11 11 11 11 11 11 10 10 10 10 10 10 10 11 11 11 11 11 11 11 11 11 12 12 12 12 12 12 12 12 12 12 12 12 12 12 12 12 12 12 12 12 12 11 11 11 11 11 10 10 11 11
13 13 13 13 13 13 12 12 12 12 12 12 12 12 12 12 11 11 11 11 11 10 10 10 10 10 10 10 10 10 10 11 11 11 11 11 11 11 12 12 12 11 11 11 11 11 12 12 12 12 11 11 11 11 11 11 11 11 11 11 11 11 11 10 10 9 9 9 10
12 12 12 12 12 12 12 12 11 11 11 11 11 11 11 11 11 11 11 10 10 9 9 9 9 9 9 10 10 10 10 10 11 11 11 11 11 11 11 11 11 11 11 11 11 11 11 11 11 11 11 10 10 10 11 11 11 11 11 11 11 10 10 9 9 9 9 9 9
12 12 12 12 11 11 11 11 11 11 11 11 10 10 10 10 10 10 10 9 9 9 9 9 9 9 9 10 10 10 10 10 10 10 10 10 10 10 10 10 11 11 10 10 11 11 10 10 10 10 10 10 10 10 10 10 10 10 10 10 10 9 9 9 9 8 8 8 8
11 11 11 11 11 11 11 11 10 10 10 10 10 9 9 9 9 9 9 9 9 9 9 9 9 9 10 10 10 10 10 10 10 10 10 10 10 10 10 10 10 10 10 10 10 10 10 10 10 9 9 9 9 9 9 9 9 9 9 9 9 9 8 8 8 8 8 8 8
11 11 11 11 11 10 10 10 10 10 10 9 9 9 9 9 9 9 8 9 9 9 9 9 9 9 10 10 10 10 10 9 9 9 9 9 9 9 9 9 9 9 9 9 9 9 9 9 9 9 8 8 9 9 8 9 9 9 9 8 8 8 8 8 8 8 8 8 7
11 11 10 10 10 10 10 10 10 10 9 9 9 9 9 9 8 8 8 8 9 9 9 9 9 9 9 9 9 9 9 9 9 9 8 8 8 8 8 8 8 8 8 8 8 8 8 8 8 8 8 8 8 8 8 8 8 8 8 8 8 7 7 7 7 7 7 7 7
10 10 10 10 10 10 10 10 10 9 9 9 9 9 8 8 8 8 8 8 8 8 8 8 9 9 9 9 9 9 8 8 8 8 8 8 8 8 8 8 8 8 8 8 7 7 7 7 7 7 7 7 8 8 7 7 7 7 7 7 7 7 7 6 6 7 6 6 6
10 10 10 10 10 10 10 10 9 9 9 9 8 8 8 8 8 8 8 8 8 8 8 8 8 8 8 8 8 8 8 8 8 8 8 8 8 8 8 8 8 7 7 7 7 7 7 7 6 6 6 7 7 7 7 7 7 6 6 6 6 6 6 6 6 6 6 5 5
10 10 10 10 10 9 9 9 9 9 8 8 8 8 8 8 8 8 8 8 8 8 8 8 8 8 8 8 8 8 8 8 7 7 7 7 7 7 7 7 7 7 7 6 6 6 6 6 6 6 6 6 6 6 6 6 6 5 5 5 5 5 5 5 5 5 5 5 5
10 9 9 9 9 9 9 9 9 8 8 8 8 8 8 7 7 7 7 7 7 7 7 7 7 7 7 7 7 7 7 7 7 7 7 7 7 7 7 6 6 6 6 5 5 5 5 5 5 5 5 5 5 5 5 5 5 5 4 4 4 4 4 4 4 4 4 4 4
9 9 9 9 9 9 8 8 8 8 8 7 7 7 7 7 7 7 7 7 7 7 7 7 7 7 7 7 7 7 7 7 7 6 6 6 6 6 5 5 5 5 4 4 4 4 4 4 4 4 4 4 4 4 4 4 4 4 4 4 3 3 4 4 4 4 4 4 3
9 9 9 8 8 8 8 8 8 7 7 7 7 7 7 7 7 7 7 7 7 7 7 7 6 6 6 6 6 6 6 6 6 5 5 5 5 4 4 4 4 4 4 4 4 3 3 3 3 3 4 4 4 4 3 3 3 3 3 3 3 3 3 3 3 3 3 3 3
9 8 8 8 8 8 8 7 7 7 7 7 7 6 6 6 6 6 6 6 6 6 6 6 6 6 5 5 5 5 5 5 5 5 4 4 4 4 4 4 4 4 3 3 3 3 3 3 3 3 3 3 3 3 3 3 2 2 2 2 2 2 2 2 2 2 2 2 2
8 8 8 8 8 7 7 7 7 7 7 6 6 6 6 6 6 6 6 6 5 5 5 5 5 5 5 5 5 4 4 4 4 4 4 4 4 3 3 3 3 3 3 2 2 2 2 2 2 2 2 2 2 2 2 2 2 2 2 2 2 2 2 2 2 2 2 2 2
8 8 8 7 7 7 7 7 7 6 6 6 6 5 5 5 5 5 5 5 5 5 5 5 4 4 4 4 4 4 4 3 3 3 3 3 3 3 3 3 2 2 2 1 1 2 2 2 2 2 2 2 2 2 2 2 2 2 2 2 2 2 2 2 2 2 2 2 2
8 8 7 7 7 7 7 6 6 6 6 6 5 5 4 4 4 4 4 4 4 4 4 4 4 4 4 3 3 3 3 3 3 3 3 3 3 2 2 2 2 2 1 1 1 1 1 1 1 2 2 2 2 2 2 2 2 2 2 1 1 1 1 1 1 1 1 1 1
7 7 7 7 7 6 6 6 6 6 5 5 5 4 4 4 4 4 4 4 4 4 4 4 4 3 3 3 3 3 3 3 3 3 3 2 2 2 2 2 1 1 1 1 1 1 1 1 1 1 1 1 1 1 2 2 2 2 1 1 1 1 1 1 1 1 1 1 1
7 7 7 6 6 6 6 5 5 5 5 5 4 4 4 4 3 4 4 4 3 3 3 3 3 3 3 3 2 2 2 2 2 2 2 2 2 2 1 1 1 1 1 1 1 1 1 1 1 1 1 1 1 1 1 1 1 1 1 1 1 1 1 1 1 1 1 0 1
7 6 6 6 6 5 5 5 5 5 5 4 4 4 3 3 3 3 3 3 3 3 3 3 3 3 2 2 2 2 2 2 2 2 2 2 2 1 1 1 1 1 1 1 1 1 1 1 1 1 1 1 1 1 1 1 1 1 1 1 1 1 1 1 1 1 1 1 1
6 6 6 5 5 5 5 4 4 4 4 4 4 3 3 3 3 3 3 3 3 3 3 3 2 2 2 2 2 2 2 2 2 2 2 1 1 1 1 1 1 1 1 1 1 1 1 1 1 1 1 1 1 1 1 1 1 1 1 1 1 1 1 1 1 1 1 1 1
5 5 5 5 5 5 4 4 4 4 4 4 4 3 3 3 3 3 3 3 3 3 2 2 2 2 2 2 2 2 2 2 2 2 1 1 1 1 1 1 1 1 1 1 1 1 1 1 1 0 0 1 1 1 1 1 1 1 1 1 1 1 1 1 1 1 1 1 1
5 5 4 4 4 4 4 4 4 4 4 4 3 3 2 2 2 2 3 3 3 2 2 2 2 2 2 2 2 2 2 2 2 2 2 2 2 1 1 1 1 1 1 1 1 1 0 0 0 0 1 1 1 1 1 0 0 0 1 1 1 1 1 1 1 1 1 1 1
4 4 4 4 4 4 4 4 4 4 3 3 3 3 2 2 2 2 2 2 2 2 2 2 2 2 2 2 2 2 2 2 2 2 2 2 2 1 1 1 1 1 1 1 1 0 0 -0 0 1 1 1 1 1 1 0 0 0 0 0 0 1 1 1 1 1 1 1 1
4 4 4 4 4 3 3 3 3 3 3 3 3 2 2 2 2 2 2 2 2 2 2 2 2 2 2 2 2 2 2 2 2 2 2 2 1 1 1 1 1 1 1 1 0 0 -0 -0 0 1 1 1 1 1 1 1 1 0 0 0 0 0 1 1 1 1 1 1 1
4 4 4 4 3 3 3 3 3 3 3 2 2 2 2 2 2 2 2 2 2 2 2 2 2 2 2 2 2 2 2 2 2 1 1 1 1 1 1 1 1 1 1 0 0 -0 -0 0 0 1 1 1 1 1 1 0 0 0 0 0 0 0 0 0 0 0 0 0 1
4 4 4 3 3 3 3 3 3 3 2 2 2 2 2 2 2 2 2 2 2 2 2 2 2 2 2 2 2 2 2 1 1 1 1 1 1 1 1 1 1 1 0 0 -0 -0 -0 0 0 0 0 1 0 0 0 0 0 0 0 0 0 0 0 0 0 0 0 0 0
4 4 4 3 3 3 3 3 3 2 2 2 2 2 2 2 2 2 2 2 2 2 2 2 2 2 2 2 1 1 1 1 1 1 1 1 1 1 1 1 1 0 0 -0 -0 -0 0 0 0 0 1 0 0 0 0 0 -0 -0 -0 -0 -0 -0 -0 -0 -0 -0 -0 -0 -0
4 4 3 3 3 3 3 3 2 2 2 2 2 2 2 2 2 1 1 1 2 2 2 2 1 1 1 1 1 1 1 1 1 1 1 1 1 1 1 1 0 0 -0 -0 -0 0 0 0 0 1 1 0 0 0 0 -0 -0 -0 -0 -1 -1 -1 -1 -1 -1 -1 -1 -1 -0
4 3 3 3 3 3 3 3 2 2 2 2 2 2 1 1 1 1 1 1 1 1 1 1 1 1 1 1 1 1 1 1 1 1 1 1 1 1 0 0 0 -0 -0 -0 -0 0 0 0 0 0 0 0 0 0 0 -0 -0 -0 -0 -1 -1 -1 -1 -1 -1 -1 -1 -1 -0
3 3 3 3 3 3 3 2 2 2 2 2 1 1 1 1 1 1 1 1 1 1 1 1 0 1 1 1 1 1 1 0 0 0 0 0 0 0 0 -0 -0 -1 -1 -1 -0 -0 0 0 0 0 0 0 0 0 0 0 -0 -0 -0 -1 -1 -1 -1 -1 -1 -1 -1 -1 -1
3 3 3 3 3 3 2 2 2 2 2 1 1 1 1 1 1 1 1 1 1 0 0 0 0 0 1 1 0 0 0 0 0 0 0 0 0 -0 -0 -0 -1 -1 -1 -1 -0 -0 0 0 0 0 -0 -0 -0 0 0 0 0 -0 -0 -0 -0 -1 -1 -1 -1 -1 -1 -1 -1
Height
796 797 798 799 800 800 801 802 802 803 804 804 805 805 806 806 807 807 808 808 808 809 809 809 809 809 809 809 810 810 810 810 811 811 811 811 812 812 812 812 813 814 814 815 815 816 816 817 817 816 815 815 816 817 817 817 818 819 820 820 820 820 820 821 821 821 821 822 822
795 796 797 798 798 799 800 800 801 802 803 803 804 804 805 805 806 806 807 807 807 807 807 808 808 808 808 808 808 809 809 809 809 810 810 810 810 810 810 811 811 812 812 813 814 814 815 815 815 814 814 814 815 815 816 816 817 818 819 819 819 819 819 819 819 820 820 820 821
795 795 796 797 798 799 799 800 800 801 802 802 803 803 804 804 805 805 806 806 806 806 807 807 807 807 807 807 807 807 807 807 808 808 808 808 808 809 809 809 809 810 810 811 811 812 812 813 813 813 813 813 814 814 815 816 817 817 817 817 817 817 818 818 818 818 819 819 820
795 795 796 797 797 798 799 799 800 800 801 801 802 802 803 803 804 804 805 805 805 805 806 806 806 806 806 806 806 806 806 806 806 806 807 807 807 807 808 808 808 809 809 810 810 810 810 811 811 812 812 813 813 814 814 815 815 816 816 816 816 816 817 817 817 818 818 818 819
794 795 796 796 797 798 798 799 799 800 800 800 801 802 802 803 803 804 804 804 805 805 805 805 805 805 805 805 805 805 805 805 805 805 806 806 806 806 807 807 807 808 808 809 809 810 810 810 811 811 811 812 812 813 813 814 814 815 815 815 815 815 816 816 816 817 817 818 818
794 794 795 795 796 797 797 798 798 799 800 800 801 801 802 802 803 803 804 804 804 804 804 804 805 805 804 804 805 805 805 805 805 805 805 805 805 806 806 806 807 807 808 808 809 809 809 810 810 810 810 811 811 811 812 813 813 814 814 814 815 815 815 815 815 816 816 816 817
793 794 794 795 795 796 797 797 798 799 799 800 800 801 802 802 803 803 804 804 804 804 804 804 804 804 804 804 804 804 804 804 804 805 805 805 805 805 806 806 806 807 807 807 808 808 808 809 809 809 810 810 810 810 811 812 812 813 813 814 814 814 814 814 814 815 815 815 815
793 793 794 795 795 796 796 797 798 798 799 800 801 801 802 802 803 803 803 804 804 804 804 803 804 804 804 804 804 804 804 804 804 804 805 805 805 805 805 806 806 806 807 807 807 807 808 808 808 809 809 809 810 810 810 811 811 812 813 813 813 813 813 813 813 813 814 814 815
792 793 794 794 795 796 796 797 798 798 799 800 800 801 801 802 802 803 803 803 803 803 803 803 803 804 804 804 804 804 804 804 804 804 805 805 805 805 805 805 806 806 806 806 807 807 807 807 807 808 808 809 809 809 810 810 811 811 812 812 812 812 812 812 812 813 813 813 814
793 793 794 794 795 795 796 797 798 798 799 800 800 800 800 801 802 802 802 802 803 803 803 803 803 804 804 804 804 804 804 804 804 805 805 805 805 805 805 805 806 806 806 806 806 806 806 807 807 807 808 808 809 809 809 810 810 810 810 811 811 811 811 811 812 812 813 813 813
793 793 794 795 795 796 796 797 797 798 798 799 799 800 800 800 801 801 801 802 802 803 803 803 804 804 804 804 804 804 804 805 805 805 805 805 805 805 805 805 806 806 806 806 806 806 806 806 806 807 807 808 808 809 809 809 810 810 810 810 810 811 811 811 812 812 812 812 812
793 793 794 795 795 796 796 797 797 798 798 799 799 800 800 800 800 801 801 802 802 802 803 803 804 804 804 804 804 804 805 805 805 805 805 805 805 805 805 806 806 806 806 806 806 806 806 806 806 806 807 807 808 808 808 809 809 809 809 810 810 810 811 811 811 812 812 812 812
793 793 794 795 795 796 796 797 797 798 798 799 799 799 800 800 800 801 801 802 802 802 803 803 803 804 804 804 804 805 805 805 805 805 805 805 805 805 805 805 805 805 805 805 805 805 806 806 806 806 806 807 807 807 808 808 808 809 809 809 810 810 810 811 811 812 812 812 813
793 793 794 795 795 796 796 797 797 798 798 798 799 799 799 800 800 801 801 802 802 802 802 803 803 803 804 804 805 805 805 805 805 805 805 805 805 805 805 805 805 805 805 805 805 805 805 805 806 806 806 806 807 807 807 808 808 808 809 809 809 810 810 810 811 811 812 813 813
793 793 794 795 795 796 796 797 797 797 798 798 798 799 799 800 800 801 801 801 802 802 802 803 803 803 804 804 805 805 805 805 805 805 805 805 805 805 805 805 805 805 805 805 805 805 805 805 805 806 806 806 806 807 807 807 808 808 809 809 809 810 810 810 811 811 812 813 813
792 793 794 794 795 795 796 796 797 797 798 798 798 799 799 800 800 800 801 801 802 802 802 803 803 803 804 804 804 805 805 805 805 805 805 805 805 805 805 805 805 805 805 805 805 805 805 805 805 806 806 806 806 807 807 807 808 808 809 809 809 810 810 810 811 811 812 813 813
792 793 794 794 795 795 795 796 796 797 797 798 798 799 799 799 800 800 801 801 802 802 802 803 803 803 803 804 804 804 805 805 805 805 805 804 804 804 804 804 804 804 804 805 805 805 805 805 805 805 806 806 806 806 807 807 808 808 808 809 809 810 810 810 811 811 812 812 813
792 792 793 794 794 795 795 795 796 796 797 798 798 798 799 799 800 800 800 801 801 802 802 802 803 803 803 803 804 804 804 804 804 804 804 804 804 804 804 804 804 804 804 804 804 804 805 805 805 805 805 806 806 806 807 807 807 808 808 809 809 810 810 810 810 811 811 812 812
791 792 793 793 794 794 795 795 796 796 797 797 798 798 799 799 800 800 800 800 801 801 802 802 802 803 803 803 803 803 803 803 803 803 803 803 803 804 804 804 804 804 804 804 804 804 804 805 805 805 805 805 806 806 806 807 807 808 808 808 809 809 810 810 810 810 811 812 812
791 791 792 793 794 794 795 795 796 796 797 797 798 798 798 799 799 800 800 800 800 801 801 801 802 802 802 802 802 802 803 803 803 803 803 803 803 803 803 803 803 803 803 803 803 804 804 804 804 805 805 805 805 806 806 807 807 807 808 808 809 809 809 810 810 810 811 812 812
790 791 792 793 793 794 794 795 795 796 797 797 797 798 798 799 799 799 799 800 800 800 800 801 801 802 802 802 802 802 802 802 802 802 802 802 802 803 803 803 803 803 803 803 803 803 803 804 804 804 805 805 805 806 806 806 807 807 808 808 808 809 809 810 810 810 811 812 812
790 791 792 792 793 794 794 795 795 796 796 797 797 797 798 798 799 799 799 799 800 800 800 800 801 801 801 801 801 801 801 801 802 802 802 802 802 802 802 802 802 802 802 802 803 803 803 804 804 804 805 805 805 806 806 806 807 807 808 808 808 809 809 810 810 811 812 812 813
790 791 791 792 793 793 794 795 795 796 796 797 797 797 798 798 798 798 799 799 799 800 800 800 800 800 801 801 801 801 801 801 801 801 801 801 801 801 801 802 802 802 802 802 802 803 803 803 804 804 805 805 805 806 806 807 807 807 808 808 809 809 810 810 811 812 812 813 814
790 790 791 792 792 793 794 794 795 795 796 796 797 797 797 797 798 798 798 799 799 799 799 800 800 800 800 800 800 800 800 800 800 800 801 801 801 801 801 801 802 802 802 802 802 802 803 803 804 804 805 805 805 806 806 807 807 808 808 809 809 810 810 811 812 813 813 814 814
789 790 791 791 792 793 793 794 795 795 796 796 796 797 797 797 797 798 798 798 799 799 799 799 799 800 800 800 800 800 800 800 800 800 800 801 801 801 801 801 802 802 802 802 802 802 803 803 803 804 805 805 806 806 807 807 808 808 809 809 810 810 811 812 813 813 814 814 815
789 790 790 791 791 792 793 794 794 795 795 796 796 796 796 797 797 797 798 798 798 798 798 799 799 799 799 799 799 800 800 800 800 800 800 800 801 801 801 801 801 801 801 801 802 802 803 803 803 804 805 805 806 806 807 808 808 809 809 810 810 811 811 812 812 813 813 814 814
788 789 790 790 791 792 792 793 794 795 795 795 795 796 796 796 797 797 798 798 798 798 798 798 798 799 799 799 799 799 799 800 800 800 800 800 800 801 801 801 801 801 801 801 802 802 803 803 804 804 805 805 806 807 807 808 809 809 810 810 810 811 811 812 812 813 813 814 814
788 789 789 790 791 791 792 793 793 794 795 795 795 795 796 796 796 797 797 797 797 797 797 798 798 798 798 798 799 799 799 799 799 800 800 800 800 801 801 801 801 801 801 801 802 802 803 803 804 804 805 805 806 807 807 808 809 809 810 810 811 811 812 812 813 813 814 814 815
787 788 789 790 790 791 791 792 793 794 794 795 795 795 795 795 796 796 797 797 797 797 797 797 797 797 798 798 798 798 799 799 799 799 800 800 800 800 801 801 801 801 801 801 802 803 803 803 804 804 805 805 806 806 807 808 808 809 810 810 811 812 812 813 813 814 814 815 815
787 787 788 789 790 790 791 792 792 793 794 794 794 795 795 795 795 796 796 796 796 796 796 797 797 797 797 798 798 798 798 799 799 799 800 800 800 801 801 801 801 801 801 802 802 803 803 804 804 804 805 805 805 806 807 807 808 809 810 811 811 812 813 813 814 814 815 815 816
786 787 787 788 789 790 790 791 792 793 793 793 794 794 794 795 795 795 795 796 796 796 796 796 797 797 797 797 798 798 798 799 799 800 800 800 800 800 801 801 801 801 802 802 803 803 803 804 804 804 805 805 805 806 807 808 809 810 810 811 812 813 813 814 814 815 815 816 816
785 786 787 788 788 789 790 791 791 792 792 793 793 794 794 794 795 795 795 795 796 796 796 796 797 797 797 797 798 798 798 799 799 800 800 800 800 800 801 801 801 801 802 802 803 803 803 804 804 804 804 805 805 806 807 808 809 810 810 811 812 813 813 814 815 815 815 816 816
785 785 786 787 788 789 790 790 791 791 792 792 793 793 793 794 794 795 795 795 795 795 796 796 796 797 797 797 798 798 798 799 799 800 800 800 800 800 801 801 801 802 802 803 803 803 803 803 803 804 804 805 806 806 807 808 809 809 810 811 812 812 813 814 815 815 815 816 816
784 785 785 786 787 788 789 790 790 790 791 791 792 793 793 794 794 794 795 795 795 795 795 796 796 797 797 797 798 798 798 799 799 800 800 800 800 800 801 801 801 802 803 803 803 803 803 803 804 804 805 805 806 807 808 808 809 810 810 811 811 812 812 813 814 815 815 816 816
783 784 785 785 786 787 788 789 789 790 790 791 792 792 793 793 793 794 794 794 795 795 795 796 796 797 797 797 798 798 799 799 799 800 800 800 800 801 801 801 802 802 803 803 803 803 803 803 804 805 805 806 807 808 808 809 809 810 810 811 811 812 813 813 814 814 815 816 816
782 783 784 785 785 786 787 788 789 789 790 790 791 792 792 793 793 793 794 794 795 795 795 796 796 796 797 797 798 798 799 799 799 800 800 800 800 801 801 802 802 803 803 803 803 803 803 804 804 805 806 806 807 808 809 809 810 810 811 811 812 813 813 814 814 815 815 816 817
781 782 783 784 785 786 786 787 788 789 789 790 790 791 792 792 793 793 794 794 795 795 795 796 796 796 797 797 798 798 799 799 800 800 800 800 801 801 801 802 802 803 803 803 803 803 804 804 805 805 806 807 807 808 809 810 810 811 811 812 812 813 813 814 814 815 815 816 816
780 781 782 783 784 785 786 786 787 788 789 789 790 791 791 792 792 793 793 794 794 795 795 795 796 796 796 797 797 798 799 799 800 800 800 800 801 801 801 802 802 803 803 803 804 804 804 805 805 806 806 807 808 809 809 810 810 811 812 812 813 813 814 814 815 815 815 816 816
779 780 781 782 783 784 785 786 786 787 788 789 790 790 791 791 792 792 793 794 794 795 795 795 795 795 796 797 797 798 799 799 800 800 800 801 801 801 802 802 803 803 803 804 804 804 805 805 805 806 807 808 808 809 810 810 811 811 812 812 813 814 814 815 815 815 815 816 816
778 779 780 781 782 783 784 785 785 786 787 788 789 790 790 791 791 792 793 793 794 794 795 795 795 795 796 797 798 798 799 799 799 800 800 800 801 802 802 802 803 803 803 804 804 804 805 805 806 806 807 808 808 809 810 810 811 811 812 813 813 814 814 815 815 815 816 816 816
777 779 780 780 781 782 783 784 785 786 787 788 789 789 790 790 791 792 792 793 794 794 794 795 795 796 796 797 798 798 799 799 800 800 800 800 801 802 802 803 803 803 804 804 804 805 805 805 806 807 807 808 809 809 810 810 811 812 812 813 813 814 815 815 815 816 816 816 816
Wind_Speed
16 16 16 16 16 16 15 15 16 16 16 14 13 12 12 12 11 10 10 11 11 11 12 12 13 14 14 16 16 17 17 17 17 18 18 18 18 18 19 19 19 18 17 16 14 13 13 12 13 15 16 17 17 17 17 17 17 16 16 17 18 19 18 17 16 15 14 13 13
14 14 14 15 15 15 14 14 14 14 14 13 12 11 10 9 9 8 8 8 9 10 11 12 13 14 15 16 17 17 17 18 17 17 17 17 17 18 18 18 18 18 17 16 15 15 15 14 15 17 19 19 19 18 18 18 17 17 18 19 19 19 19 17 16 15 14 14 14
12 12 13 13 13 13 12 12 12 12 11 11 11 11 9 8 8 8 8 8 9 9 10 10 11 12 14 15 16 16 16 16 16 16 16 16 16 16 16 16 16 16 16 16 15 16 16 17 18 19 20 20 19 18 17 17 18 19 20 19 19 19 19 17 16 15 15 15 15
11 10 10 11 11 10 10 10 9 9 9 10 10 9 9 9 9 10 9 9 9 9 8 8 8 9 11 12 12 13 14 14 13 13 13 13 13 12 12 12 11 11 12 12 13 14 15 16 17 17 17 17 17 17 17 18 19 20 20 20 20 19 18 17 16 15 14 15 16
10 9 9 9 9 9 8 8 8 8 8 8 8 8 8 9 9 9 9 9 9 9 9 9 8 8 9 10 10 11 11 10 10 10 9 9 8 8 9 9 9 9 9 9 9 10 11 12 13 14 15 16 16 17 18 19 20 20 20 20 19 18 17 15 14 14 14 14 15
9 9 9 9 9 9 8 8 8 7 7 6 6 6 6 6 7 7 7 7 8 9 10 10 9 9 9 9 8 8 8 7 7 6 6 6 6 6 7 8 8 8 7 8 8 9 10 11 12 13 14 16 17 17 17 18 18 18 18 17 17 16 14 13 13 13 13 14 15
9 9 9 9 9 8 8 8 7 7 6 5 4 4 4 4 4 5 5 6 6 7 8 8 8 8 7 6 5 5 5 4 4 4 4 4 4 5 6 6 6 6 6 7 8 9 10 11 12 13 14 15 15 16 16 16 16 15 15 14 14 14 13 13 13 13 14 14 15
9 9 9 8 8 7 7 7 6 6 5 5 4 4 4 3 3 4 5 5 5 6 6 6 6 5 4 3 3 3 3 3 2 2 2 3 3 3 4 4 4 5 6 7 8 9 9 10 11 11 12 13 13 13 14 13 13 13 13 13 13 13 13 13 13 14 14 14 14
9 9 9 8 8 7 7 6 6 5 5 5 5 5 5 5 4 4 5 5 6 6 6 5 4 3 3 2 2 2 2 2 1 1 1 2 2 2 2 2 3 4 5 6 6 7 8 8 9 10 10 11 11 11 12 12 12 12 12 12 12 12 12 12 12 13 13 13 12
8 8 8 7 7 7 7 7 7 6 6 6 7 7 7 7 7 6 7 7 6 6 4 3 3 3 3 4 4 3 3 2 1 2 2 2 2 2 2 2 3 3 4 4 5 5 6 6 7 7 8 9 9 9 10 10 10 10 11 10 10 10 10 10 11 11 11 11 11
7 7 7 7 7 7 7 7 7 7 7 7 8 8 8 8 8 8 7 6 5 4 3 3 3 4 4 5 4 4 3 2 3 3 4 4 4 4 4 4 4 4 4 4 4 4 5 5 5 5 6 6 7 8 8 9 9 9 9 9 9 8 8 9 9 10 10 10 10
7 7 7 7 7 7 7 7 7 7 7 7 7 6 7 7 7 7 5 4 4 4 4 4 5 5 5 5 5 5 4 4 4 5 5 5 5 5 5 5 4 4 4 3 4 4 4 4 5 5 5 6 6 7 7 7 8 8 8 8 8 8 9 9 9 9 9 9 9
7 7 7 7 7 7 6 6 5 5 5 5 5 5 5 5 5 4 4 4 4 5 6 6 6 6 6 6 6 5 5 5 5 6 6 6 5 5 5 4 4 3 2 2 3 3 4 4 5 5 6 6 6 7 7 7 8 8 8 8 8 9 10 10 9 9 9 9 9
8 7 7 7 7 7 6 6 5 5 4 4 4 4 4 4 4 4 4 5 5 6 7 7 7 7 6 6 6 6 6 6 5 5 5 5 4 4 4 3 4 3 3 3 4 4 4 5 5 6 6 7 7 7 7 7 8 8 9 9 9 10 10 10 9 9 8 8 8
8 8 8 8 7 7 6 6 5 5 4 4 4 4 4 5 5 5 5 6 7 7 7 8 7 7 6 6 6 6 6 5 5 4 3 3 3 4 4 5 5 5 5 5 5 5 6 6 6 6 6 6 7 7 7 7 8 8 8 8 9 9 10 9 8 7 7 7 8
9 8 8 8 7 6 6 6 6 5 5 4 4 4 5 6 6 6 7 7 7 7 7 8 8 8 7 7 6 6 5 4 3 3 3 3 4 5 5 6 6 6 6 6 7 7 7 7 7 6 6 6 7 7 7 7 8 8 8 8 8 8 8 7 7 6 7 7 8
9 9 8 7 7 6 6 5 5 5 5 4 5 5 6 6 7 7 7 7 6 6 7 7 8 8 7 7 6 5 4 3 3 3 4 4 5 6 6 7 7 7 7 7 8 8 7 7 7 7 7 7 7 7 7 8 8 8 7 7 7 7 7 6 6 6 7 8 9
9 8 8 7 7 6 5 5 5 5 5 5 5 5 6 7 7 8 8 7 6 5 5 6 7 7 6 6 6 6 5 4 4 5 5 6 7 7 7 8 8 8 8 8 8 7 7 6 6 7 7 7 7 8 8 8 7 7 7 7 7 7 7 7 7 7 8 9 9
8 8 8 7 7 6 5 5 5 5 5 5 5 6 6 7 7 7 8 8 7 6 5 5 6 6 7 6 7 7 7 7 7 7 8 8 9 9 9 9 8 8 8 7 7 7 6 6 6 7 7 8 8 8 8 7 7 7 7 7 7 7 8 8 8 8 9 9 10
8 7 7 7 7 6 6 5 5 5 5 5 6 6 7 7 7 8 8 7 7 7 6 6 6 6 7 7 8 8 9 9 9 9 9 10 10 10 9 9 8 8 8 7 7 7 7 7 7 7 8 8 8 8 7 7 7 7 7 7 7 8 8 9 9 10 10 11 11
7 7 7 7 6 6 6 5 5 5 5 6 6 7 7 7 8 8 8 8 8 7 7 6 6 6 6 7 8 9 9 9 9 9 9 10 9 8 8 8 8 7 7 7 7 7 7 8 7 7 7 7 7 7 7 6 6 6 7 7 8 8 9 9 10 11 12 12 12
8 7 7 7 6 6 6 6 6 6 6 6 6 6 7 7 7 8 8 8 8 8 8 7 7 7 6 7 8 8 9 9 8 8 8 8 7 7 7 8 8 7 7 7 7 7 7 7 7 6 6 6 6 6 6 7 7 7 8 8 9 10 10 11 11 12 12 12 11
8 7 7 7 6 6 6 6 6 6 6 6 6 6 6 7 7 8 8 8 8 8 8 8 8 7 7 8 8 8 9 8 8 8 8 7 7 7 7 7 7 6 6 6 7 7 7 7 6 6 6 7 7 7 8 8 9 10 10 11 11 12 12 12 12 12 12 11 11
8 8 7 7 7 6 6 6 6 6 5 5 5 6 7 7 8 8 8 8 8 8 8 8 8 8 8 9 9 9 9 9 9 9 8 8 8 7 6 6 5 5 5 6 7 7 7 7 7 7 8 8 9 9 10 10 11 11 12 13 13 13 13 13 12 11 10 10 9
9 8 7 7 7 7 6 6 6 5 5 6 6 7 7 7 8 8 8 8 8 8 9 9 9 8 8 8 8 8 9 8 8 8 8 8 8 7 6 5 4 4 5 6 6 7 7 8 9 9 10 10 10 10 11 11 12 12 13 13 13 13 13 12 12 11 10 10 9
9 8 8 7 7 7 7 6 6 6 6 6 6 7 7 8 8 8 8 8 8 9 9 10 9 8 8 7 8 8 8 7 8 7 7 7 7 6 5 5 5 5 6 6 6 7 7 8 9 10 11 11 11 11 11 11 11 11 12 12 12 12 12 12 12 12 12 11 11
9 8 8 7 7 7 7 6 6 6 6 6 6 6 7 8 8 8 8 8 9 9 10 10 9 8 8 7 8 7 7 7 7 7 7 6 6 5 5 5 5 5 6 6 7 7 8 8 9 10 11 11 11 11 11 10 10 11 11 11 11 11 12 12 12 13 13 13 12
9 8 8 7 6 6 6 6 6 6 6 6 6 6 7 7 8 8 8 9 9 9 9 9 9 8 8 7 7 7 7 7 7 7 6 6 6 5 5 5 5 5 5 6 7 8 9 9 10 11 11 12 12 12 11 11 11 12 12 11 11 11 11 11 12 12 12 12 12
8 8 7 7 6 6 6 6 6 6 6 6 6 6 6 7 8 8 8 8 9 9 9 9 8 8 8 7 7 7 7 7 7 6 6 6 5 5 5 5 5 5 5 7 9 9 10 10 10 11 11 12 12 12 12 12 12 12 12 11 10 10 10 11 11 11 11 11 10
8 8 7 7 6 6 6 6 6 6 7 6 6 6 6 7 8 9 9 9 9 9 9 8 8 7 7 7 7 7 7 6 6 5 5 5 5 5 5 5 5 6 7 9 10 10 10 10 10 11 11 12 13 13 13 13 13 12 11 10 10 10 10 10 10 9 9 9 9
8 8 7 7 6 6 6 6 7 7 7 7 6 6 6 7 8 9 9 9 9 8 8 8 7 7 7 7 7 7 6 6 6 6 6 6 6 6 6 6 7 8 9 10 10 10 10 11 11 11 12 12 13 13 14 13 12 11 10 10 9 9 9 9 9 9 8 8 8
9 8 8 7 7 7 7 7 7 7 7 7 7 6 7 7 8 8 9 9 8 8 7 7 7 7 7 7 7 7 7 6 6 6 7 7 7 7 7 8 9 9 10 10 10 11 11 11 11 11 12 13 14 14 15 14 13 12 11 11 11 10 10 9 9 8 8 8 7
9 9 8 8 8 8 7 8 8 8 8 8 7 7 7 7 7 8 8 8 8 8 7 7 7 8 8 8 7 7 7 7 7 7 7 8 8 8 8 9 10 10 10 10 11 11 10 10 11 11 12 13 14 15 16 15 15 14 14 13 13 12 11 10 9 9 8 8 7
10 9 9 9 9 8 9 9 9 9 9 8 8 7 7 7 7 8 8 8 8 8 8 8 8 8 8 8 8 8 7 7 7 8 8 8 9 9 10 10 10 10 10 11 10 10 10 10 10 11 12 13 14 15 15 15 14 14 14 14 13 13 13 12 11 11 9 8 7
10 10 9 9 9 9 10 10 10 10 9 8 8 8 8 8 8 8 8 8 8 8 8 9 9 9 8 8 8 8 8 8 8 8 9 9 10 10 10 10 10 11 10 10 10 10 10 10 11 11 13 13 14 14 13 13 13 12 12 12 12 12 12 11 11 11 10 8 7
11 10 10 10 10 10 11 11 11 10 9 8 8 8 8 8 8 8 8 8 8 8 9 9 9 9 8 8 8 8 8 8 8 9 9 10 10 10 11 11 11 11 10 10 10 10 10 11 12 13 14 14 13 13 12 11 11 10 10 10 9 9 9 9 9 9 9 8 7
12 11 11 11 11 11 12 12 11 11 10 9 9 9 9 9 9 9 8 8 9 9 10 10 9 9 9 9 8 8 8 8 9 9 10 10 10 11 11 11 11 11 11 10 10 10 11 12 13 14 14 13 13 12 11 10 10 9 9 8 8 7 7 7 7 7 7 7 8
12 12 12 12 12 13 13 12 12 11 10 10 9 9 9 9 9 9 9 9 10 10 10 10 10 10 10 10 10 9 9 8 9 9 10 10 10 11 11 12 11 11 10 10 10 10 11 12 13 13 13 12 11 10 10 9 9 8 8 8 7 7 7 6 6 5 5 6 8
13 13 13 13 13 14 14 13 12 12 11 10 10 10 10 9 9 9 9 10 10 11 11 11 11 11 11 12 12 11 10 9 9 10 10 10 10 11 11 11 11 11 10 10 10 11 11 12 13 12 11 11 10 9 9 9 8 8 8 8 7 7 7 6 6 5 4 5 7
13 13 13 14 14 15 14 14 13 12 12 11 11 11 11 10 10 10 10 11 11 11 11 11 12 12 12 12 12 12 11 10 11 11 12 11 10 10 11 11 11 10 10 10 10 11 11 12 12 12 11 10 9 8 8 8 8 8 8 7 7 7 7 6 6 5 5 4 5
14 14 15 15 16 16 15 15 14 13 12 12 12 12 12 11 11 11 11 11 12 12 12 12 12 12 12 12 12 12 12 11 11 12 12 12 11 10 10 10 10 10 10 10 10 10 11 12 12 12 10 9 8 8 7 8 8 8 7 7 7 7 6 6 6 6 6 5 5
Wind_Direction
208 212 213 214 215 216 218 221 223 223 223 224 225 229 232 232 230 231 234 236 235 234 234 234 233 235 240 245 248 250 252 254 256 258 259 259 259 257 256 255 254 252 252 251 252 251 250 249 249 247 244 239 236 235 236 239 243 246 247 243 238 235 231 228 224 222 222 226 225
205 208 211 212 213 213 214 217 220 222 221 221 220 222 224 225 222 221 224 227 228 231 233 236 239 241 244 248 251 252 253 254 255 257 258 259 259 260 260 260 259 256 253 249 248 245 243 242 240 240 240 240 239 239 241 245 248 247 242 236 231 228 226 222 218 217 218 221 224
199 202 205 208 207 206 206 209 213 215 214 214 215 214 214 212 211 210 212 216 222 228 232 235 242 246 248 250 252 253 253 253 254 256 257 259 261 263 264 265 264 262 258 253 248 244 241 240 238 239 240 242 244 245 247 248 247 242 236 231 229 226 223 219 219 220 224 229 231
188 191 194 196 196 196 197 199 202 203 205 208 210 209 207 206 206 206 208 214 218 223 226 227 234 243 248 249 251 252 253 253 254 257 260 263 266 268 270 271 271 269 266 261 255 250 247 245 244 244 244 245 246 246 246 245 242 238 234 233 231 228 225 224 226 230 234 236 235
174 176 177 177 177 179 184 187 187 191 198 205 206 205 206 208 209 209 211 218 221 223 224 222 223 232 241 245 250 253 256 258 260 262 266 269 272 274 275 275 273 271 268 265 261 257 254 252 249 247 245 243 242 241 241 240 238 236 235 235 232 230 229 231 235 238 238 236 235
164 166 167 167 168 171 175 177 179 185 192 197 197 198 204 210 211 211 213 220 226 231 233 231 230 234 242 247 253 257 262 265 266 268 271 275 277 278 277 275 270 267 264 260 258 255 253 250 248 246 242 240 238 237 237 237 237 235 233 231 230 231 233 237 241 243 242 240 240
161 164 165 168 170 173 175 176 177 179 181 180 176 176 186 201 204 205 209 220 230 238 243 242 242 244 249 254 258 264 268 268 267 267 273 282 283 278 273 270 265 262 259 256 254 251 249 247 246 244 242 240 237 235 235 235 233 231 229 229 232 235 238 240 243 245 245 243 241
164 166 167 169 171 174 174 173 173 171 165 156 150 152 161 171 182 195 206 216 222 233 242 247 247 249 252 255 262 270 275 275 269 269 272 278 276 270 263 259 257 255 252 251 250 248 247 245 244 241 238 238 235 233 232 231 229 229 231 234 238 241 242 241 243 245 245 243 239
167 171 173 173 173 171 168 164 160 154 147 144 148 158 165 166 172 189 205 214 221 231 241 245 245 245 242 235 230 240 255 261 250 227 237 239 226 224 231 235 241 244 242 241 241 240 239 238 237 235 235 234 232 231 231 232 232 234 237 238 239 241 242 241 242 242 240 238 234
169 173 176 175 173 170 166 160 156 153 154 160 171 181 184 184 187 198 212 222 229 235 237 231 226 220 214 212 208 208 216 225 179 162 171 177 168 168 177 184 198 212 218 221 221 222 223 225 225 227 229 232 231 232 234 237 236 236 237 238 238 237 237 237 234 229 223 221 222
167 171 172 172 172 171 168 165 166 170 175 181 188 195 198 201 204 211 219 227 228 221 209 201 195 195 200 206 199 189 183 178 163 161 163 161 163 166 169 174 178 181 183 186 193 198 201 205 211 215 219 223 225 227 231 234 233 231 229 231 232 230 226 222 217 209 204 203 206
165 169 171 171 170 170 169 170 175 181 187 191 196 204 210 215 215 217 217 214 201 189 185 186 182 186 192 196 184 173 164 162 163 165 165 165 167 170 172 172 171 168 165 169 184 195 198 201 206 207 207 208 213 215 217 220 220 219 218 217 217 215 210 203 200 197 195 194 193
164 166 166 166 165 163 162 166 172 179 185 191 200 210 217 214 205 201 195 189 187 187 187 185 183 183 184 182 173 166 164 167 172 173 173 173 174 176 177 179 182 184 190 200 214 223 226 225 222 213 207 204 206 206 205 205 206 207 207 205 202 198 194 191 190 191 192 190 187
162 160 160 160 157 155 155 158 163 168 175 187 201 208 203 185 175 178 186 192 196 194 190 185 181 178 175 174 172 172 174 177 180 182 186 188 190 195 202 212 222 234 244 250 250 250 247 243 237 227 217 211 209 206 202 200 200 200 200 199 194 189 186 185 186 188 189 188 188
156 157 157 156 153 153 155 158 160 163 170 181 192 192 182 173 175 182 191 198 202 199 192 186 181 178 176 179 182 184 185 185 187 195 207 217 226 233 241 247 250 252 254 254 254 253 251 247 242 236 228 220 215 210 205 200 198 197 195 192 188 185 184 184 186 188 192 194 193
155 155 155 153 152 154 159 166 168 168 168 175 185 187 184 184 190 193 195 195 198 198 194 191 189 188 190 195 197 198 198 201 208 219 230 240 249 254 258 261 261 260 257 254 253 251 249 247 245 239 233 226 219 212 206 201 198 193 189 185 184 184 186 188 193 196 199 199 194
157 156 153 151 151 156 166 175 179 177 175 180 191 195 196 199 201 200 195 189 189 194 199 200 202 203 205 209 212 213 212 219 232 239 242 246 252 257 261 264 265 265 263 260 256 253 249 246 244 240 234 226 218 210 203 199 195 190 186 185 185 188 192 198 203 204 201 196 189
161 160 158 157 159 163 172 182 189 189 187 190 195 199 203 206 204 201 196 190 188 196 207 213 219 221 223 224 227 226 225 225 234 241 245 248 253 257 261 263 265 265 263 260 257 255 251 244 238 232 227 220 212 205 200 196 194 192 193 194 196 198 201 204 205 203 195 186 178
166 166 165 166 169 174 181 188 195 197 197 196 197 199 202 204 202 201 199 197 196 201 211 221 230 236 239 239 239 239 238 238 243 248 252 254 258 260 261 262 262 261 258 254 251 247 240 232 225 219 215 210 205 201 198 197 198 200 201 202 202 202 202 200 198 192 184 174 165
170 170 171 173 178 184 189 194 197 197 197 197 198 200 201 201 202 203 204 205 207 210 214 222 233 240 246 249 249 250 250 251 254 257 261 262 263 262 262 262 260 257 253 247 241 233 224 217 214 212 210 207 204 202 201 201 201 201 200 199 198 196 192 188 182 175 168 161 154
171 172 174 177 182 186 191 196 196 195 193 195 198 202 203 204 206 208 211 215 219 220 222 226 232 240 246 252 254 255 256 258 259 262 264 266 265 262 259 256 252 248 242 236 228 221 213 207 205 204 203 203 202 200 198 194 190 186 184 182 179 176 172 168 163 158 152 146 139
167 170 174 178 181 186 191 195 197 195 194 197 203 208 212 216 219 222 226 229 232 232 231 229 230 232 237 243 249 254 258 260 259 258 258 257 254 250 248 246 242 236 228 218 208 200 196 195 193 193 191 190 187 183 178 171 166 162 158 155 153 150 149 147 145 141 137 130 124
165 168 173 179 183 188 192 195 198 200 202 207 215 221 226 232 237 241 245 247 246 241 235 231 227 227 229 235 243 250 256 258 254 248 242 238 234 235 238 240 235 228 218 207 196 188 183 179 178 177 176 172 166 159 154 152 149 145 140 137 135 133 131 129 126 123 120 118 117
165 168 173 179 185 190 195 200 205 210 215 220 228 234 239 244 250 255 257 257 252 244 236 229 225 226 231 238 244 251 255 255 250 243 236 231 227 227 232 235 230 219 208 200 191 183 176 169 165 163 160 157 151 146 144 143 140 137 133 130 127 125 122 119 115 113 114 115 117
168 170 174 179 186 194 200 207 212 218 224 230 235 240 244 248 253 256 256 251 244 237 230 224 222 226 233 239 244 249 251 250 246 240 234 230 227 225 226 223 213 203 200 196 187 178 171 166 162 157 152 148 144 141 139 139 137 135 132 130 128 126 124 123 121 121 120 119 121
171 172 175 181 189 198 207 212 218 224 229 233 236 240 244 248 252 254 248 238 230 224 222 221 221 224 229 234 238 242 243 241 238 234 229 226 222 219 215 209 206 206 205 197 183 172 164 161 159 155 150 144 141 138 137 136 135 134 133 132 132 131 131 131 132 132 131 129 129
172 175 178 185 194 203 210 218 224 227 229 231 232 237 244 250 253 248 237 225 218 215 216 218 219 221 225 231 233 232 229 227 225 224 222 220 213 207 204 204 209 213 208 192 175 163 156 154 153 152 149 144 140 137 136 135 135 136 136 136 137 138 139 139 139 138 136 132 129
174 177 182 189 196 205 215 222 225 225 225 228 232 239 246 249 246 236 224 216 211 210 211 214 217 222 226 228 226 223 219 217 215 215 215 214 205 199 197 200 206 209 197 175 162 156 154 152 152 151 150 145 141 138 137 138 140 141 140 139 140 142 143 143 143 140 136 131 127
174 178 185 190 198 208 218 224 222 220 220 222 228 233 238 239 233 224 216 211 209 209 212 215 221 225 225 219 215 213 211 209 209 208 204 198 190 188 191 192 195 185 167 156 154 154 153 151 151 151 150 149 146 144 144 145 145 142 140 139 139 140 141 141 140 138 135 132 130
176 181 188 193 200 210 218 220 217 216 217 218 220 223 229 232 225 219 213 211 210 212 217 223 225 221 213 206 204 201 197 195 193 187 180 172 169 171 174 174 164 152 147 149 151 151 150 150 150 151 153 154 154 152 149 147 142 138 136 135 135 135 135 135 135 135 135 134 132
184 187 193 199 206 212 216 217 215 212 210 211 216 221 226 228 224 219 215 213 212 215 220 224 218 209 200 197 193 187 181 174 167 163 163 162 162 162 160 155 146 143 145 148 150 150 149 150 152 154 158 161 159 153 147 140 135 132 131 132 132 133 132 132 132 132 133 134 133
188 192 198 203 209 212 212 211 209 206 204 206 213 221 226 226 223 220 216 213 212 212 213 210 201 193 188 183 179 173 167 161 160 161 162 163 161 157 152 147 142 142 145 148 149 150 151 155 159 164 166 165 160 153 145 138 135 133 132 131 130 128 126 125 126 128 130 131 131
190 194 200 204 209 212 212 207 203 200 200 203 211 219 224 221 219 218 216 212 209 205 201 194 187 182 177 172 168 165 163 162 164 165 165 164 160 155 149 144 143 144 147 149 150 152 155 161 166 169 169 166 161 155 149 145 142 140 137 135 132 130 128 126 125 125 124 124 124
191 195 200 204 209 211 209 205 201 200 201 204 212 219 221 217 212 210 208 206 203 199 194 189 184 179 175 170 166 165 165 165 166 166 165 162 157 152 147 145 146 147 149 151 151 153 157 162 165 166 165 163 159 154 151 149 147 146 144 143 142 141 140 137 133 129 125 120 117
192 195 199 203 206 206 205 203 201 202 203 207 213 217 217 211 206 203 202 201 197 193 189 185 181 176 172 169 169 168 166 165 165 164 162 158 154 150 146 145 148 149 149 151 152 154 157 158 158 158 157 155 152 148 146 146 145 146 146 147 148 148 148 146 143 137 131 123 117
193 196 198 201 203 203 201 200 200 200 202 205 208 210 210 206 203 204 203 200 195 190 186 182 178 173 169 169 172 173 170 166 163 161 159 156 153 149 147 146 147 148 149 152 154 155 155 154 153 152 151 148 144 140 138 138 137 138 140 142 144 147 151 151 149 146 140 132 123
195 197 199 200 201 200 199 198 198 198 199 201 203 204 203 200 199 202 203 200 195 190 185 180 173 168 166 166 166 167 167 165 162 160 157 155 152 149 147 147 147 149 151 154 157 157 155 152 151 150 148 144 138 135 132 131 130 129 130 132 136 142 146 147 147 146 145 142 139
195 197 199 200 199 199 198 197 196 195 196 197 198 199 198 195 192 194 197 196 192 186 182 176 169 165 163 162 158 156 157 160 162 161 158 155 154 151 150 149 149 150 154 158 160 159 155 153 152 151 147 141 136 134 131 129 128 128 127 129 131 133 134 132 131 134 143 154 154
195 197 199 200 199 197 196 196 194 192 191 192 193 194 193 189 185 185 187 189 186 182 178 173 168 166 167 166 163 158 156 157 159 157 155 154 154 155 154 152 151 153 158 162 164 161 158 156 155 152 147 141 136 134 133 131 130 129 129 130 131 131 129 126 125 128 141 158 158
197 198 198 199 197 195 194 192 190 189 189 190 190 190 189 186 183 182 182 182 182 180 177 174 172 173 174 173 171 169 166 162 158 155 151 149 151 154 155 154 153 155 160 165 166 165 162 161 159 155 148 141 137 135 134 134 133 132 132 133 134 134 133 131 129 129 132 137 143
198 198 198 197 196 194 192 189 187 188 189 189 190 190 190 189 186 184 182 181 182 182 180 178 178 178 179 179 179 177 175 171 165 158 152 147 145 148 152 153 154 157 161 166 167 167 166 165 163 157 150 142 138 136 135 136 137 138 139 139 139 138 137 136 133 131 130 127 126